CW9825 Weather Reports


Display with metric or nautical units.
time (UTC)temp
F
wind
direction
speed
MPH
gust
MPH
rain 1hr
in
rain 24hr
in
rain mn
in
humidity
%
barometer
mb
20200806220050 78 162 6.0 16.0 0.00 0.00 0.00 66 1013.4
20200806215529 79 155 7.0 13.0 0.00 0.00 0.00 63 1013.4
20200806215027 80 113 3.0 13.0 0.00 0.00 0.00 64 1013.2
20200806214622 80 180 7.0 13.0 0.00 0.00 0.00 63 1013.3
20200806214036 80 136 7.0 13.0 0.00 0.00 0.00 63 1013.4
20200806213528 78 166 7.0 13.0 0.00 0.00 0.00 65 1013.5
20200806213030 78 136 6.0 13.0 0.00 0.00 0.00 66 1013.5
20200806212525 79 147 7.0 17.0 0.00 0.00 0.00 63 1013.5
20200806212025 80 186 7.0 17.0 0.00 0.00 0.00 63 1013.4
20200806211536 80 121 5.0 12.0 0.00 0.00 0.00 62 1013.4
20200806211034 80 128 4.0 14.0 0.00 0.00 0.00 62 1013.3
20200806210525 80 169 8.0 14.0 0.00 0.00 0.00 60 1013.4
20200806210035 81 147 9.0 13.0 0.00 0.00 0.00 61 1013.4
20200806205524 80 169 4.0 10.0 0.00 0.00 0.00 61 1013.5
20200806205023 80 199 4.0 12.0 0.00 0.00 0.00 63 1013.6
20200806204532 79 127 7.0 12.0 0.00 0.00 0.00 62 1013.5
20200806204037 80 130 6.0 14.0 0.00 0.00 0.00 62 1013.6
20200806203523 81 127 6.0 14.0 0.00 0.00 0.00 64 1013.5
20200806203042 79 140 6.0 11.0 0.00 0.00 0.00 60 1013.6
20200806202538 79 153 5.0 12.0 0.00 0.00 0.00 67 1013.7
20200806202019 78 134 5.0 15.0 0.00 0.00 0.00 66 1013.7
20200806201531 80 169 8.0 15.0 0.00 0.00 0.00 62 1013.7
20200806201019 81 236 4.0 10.0 0.00 0.00 0.00 64 1013.8
20200806200537 80 305 6.0 13.0 0.00 0.00 0.00 65 1013.9
20200806200048 79 178 5.0 13.0 0.00 0.00 0.00 66 1014.0
20200806195523 79 218 6.0 11.0 0.00 0.00 0.00 66 1013.9
20200806195018 80 161 4.0 15.0 0.00 0.00 0.00 63 1013.9
20200806194607 79 139 7.0 14.0 0.00 0.00 0.00 63 1014.0
20200806193531 78 177 6.0 12.0 0.00 0.00 0.00 67 1014.2
20200806193025 78 133 3.0 13.0 0.00 0.00 0.00 67 1014.2
20200806192513 79 137 8.0 13.0 0.00 0.00 0.00 64 1014.2
20200806192018 78 141 7.0 13.0 0.00 0.00 0.00 66 1014.4
20200806191521 78 313 4.0 13.0 0.00 0.00 0.00 69 1014.3
20200806191020 77 180 2.0 15.0 0.00 0.00 0.00 68 1014.3
20200806190510 79 121 8.0 15.0 0.00 0.00 0.00 65 1014.3
20200806190032 79 151 5.0 12.0 0.00 0.00 0.00 67 1014.3
20200806185510 76 178 3.0 11.0 0.00 0.00 0.00 70 1014.3
20200806185009 77 179 5.0 12.0 0.00 0.00 0.00 70 1014.3
20200806184517 77 155 6.0 12.0 0.00 0.00 0.00 67 1014.4
20200806184008 78 152 7.0 12.0 0.00 0.00 0.00 68 1014.4
20200806183518 77 184 5.0 17.0 0.00 0.00 0.00 69 1014.4
20200806183020 77 134 7.0 14.0 0.00 0.00 0.00 69 1014.5
20200806182513 77 155 3.0 14.0 0.00 0.00 0.00 68 1014.4
20200806182013 77 111 5.0 11.0 0.00 0.00 0.00 68 1014.5
20200806181515 77 139 5.0 14.0 0.00 0.00 0.00 68 1014.5
20200806181007 78 146 7.0 14.0 0.00 0.00 0.00 66 1014.6
20200806180507 78 147 6.0 13.0 0.00 0.00 0.00 66 1014.6
20200806180022 78 144 5.0 13.0 0.00 0.00 0.00 69 1014.6
20200806175506 77 131 6.0 13.0 0.00 0.00 0.00 67 1014.6
20200806175004 77 163 4.0 12.0 0.00 0.00 0.00 67 1014.6
20200806174528 78 115 6.0 12.0 0.00 0.00 0.00 66 1014.6
20200806174006 79 152 4.0 11.0 0.00 0.00 0.00 66 1014.6
20200806173510 78 146 4.0 11.0 0.00 0.00 0.00 69 1014.7
20200806173012 77 137 4.0 11.0 0.00 0.00 0.00 70 1014.8
20200806172600 77 167 6.0 13.0 0.00 0.00 0.00 66 1014.9
20200806172103 77 170 5.0 13.0 0.00 0.00 0.00 69 1014.9
20200806171728 77 141 4.0 8.0 0.00 0.00 0.00 68 1015.0
20200806171057 76 126 5.0 9.0 0.00 0.00 0.00 69 1015.0
20200806170557 76 201 2.0 12.0 0.00 0.00 0.00 69 1015.0
20200806170212 76 161 5.0 12.0 0.00 0.00 0.00 68 1015.0
20200806165558 76 155 4.0 12.0 0.00 0.00 0.00 69 1015.0
20200806165103 76 177 2.0 10.0 0.00 0.00 0.00 71 1015.0
20200806164728 76 126 3.0 9.0 0.00 0.00 0.00 71 1015.0
20200806164056 75 90 5.0 9.0 0.00 0.00 0.00 70 1015.1
20200806163553 75 146 4.0 8.0 0.00 0.00 0.00 70 1015.1
20200806163127 74 159 5.0 10.0 0.00 0.00 0.00 70 1015.1
20200806162601 75 136 5.0 10.0 0.00 0.00 0.00 69 1015.1
20200806162047 75 128 4.0 9.0 0.00 0.00 0.00 72 1015.0
20200806161834 74 85 3.0 8.0 0.00 0.00 0.00 71 1015.0
20200806161049 74 138 2.0 8.0 0.00 0.00 0.00 72 1015.1
20200806160545 74 111 3.0 9.0 0.00 0.00 0.00 72 1015.2
20200806160053 74 140 3.0 9.0 0.00 0.00 0.00 71 1015.2
20200806155548 73 203 6.0 11.0 0.00 0.00 0.00 71 1015.1
20200806155042 73 171 6.0 11.0 0.00 0.00 0.00 71 1015.2
20200806154557 73 138 6.0 11.0 0.00 0.00 0.00 74 1015.2
20200806154041 72 148 6.0 11.0 0.00 0.00 0.00 73 1015.2
20200806153541 73 146 5.0 11.0 0.00 0.00 0.00 74 1015.1
20200806153117 72 151 4.0 12.0 0.00 0.00 0.00 73 1015.2
20200806152547 73 174 5.0 12.0 0.00 0.00 0.00 72 1015.2
20200806152035 72 155 3.0 9.0 0.00 0.00 0.00 77 1015.2
20200806151603 71 174 5.0 10.0 0.00 0.00 0.00 76 1015.2
20200806151033 71 140 6.0 11.0 0.00 0.00 0.00 74 1015.3
20200806150536 71 135 4.0 9.0 0.00 0.00 0.00 76 1015.3
20200806150102 70 190 4.0 9.0 0.00 0.00 0.00 77 1015.3
20200806145529 70 136 3.0 9.0 0.00 0.00 0.00 79 1015.3
20200806145036 70 176 4.0 12.0 0.00 0.00 0.00 79 1015.3
20200806144530 70 127 4.0 12.0 0.00 0.00 0.00 77 1015.3
20200806144027 70 196 4.0 12.0 0.00 0.00 0.00 77 1015.3
20200806143526 69 140 5.0 11.0 0.00 0.00 0.00 78 1015.3
20200806143121 69 157 6.0 11.0 0.00 0.00 0.00 78 1015.3
20200806142524 69 155 6.0 10.0 0.00 0.00 0.00 79 1015.3
20200806142022 68 157 4.0 9.0 0.00 0.00 0.00 81 1015.3
20200806141532 68 147 5.0 11.0 0.00 0.00 0.00 82 1015.3
20200806141028 67 163 4.0 11.0 0.00 0.00 0.00 82 1015.4
20200806140517 67 206 4.0 9.0 0.00 0.00 0.00 84 1015.3
20200806140021 66 142 2.0 9.0 0.00 0.00 0.00 84 1015.4
20200806135517 66 138 4.0 8.0 0.00 0.00 0.00 84 1015.5
20200806135015 66 144 3.0 7.0 0.00 0.00 0.00 86 1015.5
20200806134514 66 157 2.0 7.0 0.00 0.00 0.00 87 1015.5
20200806134016 65 147 2.0 4.0 0.00 0.00 0.00 88 1015.6
20200806133510 65 142 0.0 4.0 0.00 0.00 0.00 88 1015.6
20200806133019 64 146 2.0 5.0 0.00 0.00 0.00 89 1015.5
20200806132512 64 134 1.0 5.0 0.00 0.00 0.00 89 1015.6
20200806132011 64 132 2.0 4.0 0.00 0.00 0.00 90 1015.5
20200806131508 63 146 1.0 3.0 0.00 0.00 0.00 90 1015.5
20200806131006 63 146 1.0 3.0 0.00 0.00 0.00 90 1015.5
20200806130506 62 153 0.0 3.0 0.00 0.00 0.00 91 1015.4
20200806130009 61 153 0.0 3.0 0.00 0.00 0.00 91 1015.4
20200806125505 61 153 0.0 0.0 0.00 0.00 0.00 92 1015.3
20200806125005 60 153 0.0 0.0 0.00 0.00 0.00 92 1015.2
20200806124503 60 153 0.0 0.0 0.00 0.00 0.00 92 1015.3
20200806124101 60 153 0.0 0.0 0.00 0.00 0.00 92 1015.3
20200806123601 60 153 0.0 0.0 0.00 0.00 0.00 92 1015.2
20200806123222 60 153 0.0 0.0 0.00 0.00 0.00 93 1015.1
20200806122609 59 153 0.0 0.0 0.00 0.00 0.00 93 1015.2
20200806122133 59 153 0.0 0.0 0.00 0.00 0.00 93 1015.2
20200806121654 59 153 0.0 0.0 0.00 0.00 0.00 93 1015.2
20200806121123 59 153 0.0 0.0 0.00 0.00 0.00 92 1015.3
20200806120556 59 153 0.0 0.0 0.00 0.00 0.00 92 1015.3
20200806120125 59 153 0.0 0.0 0.00 0.00 0.00 92 1015.3
20200806115556 59 153 0.0 0.0 0.00 0.00 0.00 92 1015.3
20200806114650 59 153 0.0 0.0 0.00 0.00 0.00 92 1015.3
20200806114056 59 153 0.0 0.0 0.00 0.00 0.00 91 1015.3
20200806113604 60 153 0.0 0.0 0.00 0.00 0.00 91 1015.4
20200806113240 59 153 0.0 0.0 0.00 0.00 0.00 91 1015.3
20200806112608 59 153 0.0 0.0 0.00 0.00 0.00 92 1015.3
20200806112058 58 153 0.0 0.0 0.00 0.00 0.00 94 1015.3
20200806111710 58 153 0.0 0.0 0.00 0.00 0.00 93 1015.3
20200806111055 58 153 0.0 0.0 0.00 0.00 0.00 92 1015.3
20200806110610 58 153 0.0 0.0 0.00 0.00 0.00 93 1015.3
20200806110203 58 153 0.0 0.0 0.00 0.00 0.00 92 1015.4
20200806105550 59 153 0.0 0.0 0.00 0.00 0.00 92 1015.3
20200806105100 59 153 0.0 0.0 0.00 0.00 0.00 93 1015.3
20200806104630 58 153 0.0 0.0 0.00 0.00 0.00 92 1015.3
20200806104125 59 153 0.0 0.0 0.00 0.00 0.00 92 1015.3
20200806103600 59 153 0.0 0.0 0.00 0.00 0.00 90 1015.2
20200806103122 60 153 0.0 2.0 0.00 0.00 0.00 90 1015.1
20200806102550 60 153 1.0 2.0 0.00 0.00 0.00 90 1015.2
20200806102049 60 152 0.0 5.0 0.00 0.00 0.00 90 1015.2
20200806101713 60 152 2.0 5.0 0.00 0.00 0.00 90 1015.2
20200806101049 59 152 1.0 3.0 0.00 0.00 0.00 91 1015.2
20200806100331 60 152 1.0 3.0 0.00 0.00 0.00 91 1015.1
20200806095548 59 152 1.0 2.0 0.00 0.00 0.00 93 1015.1
20200806095051 59 152 1.0 2.0 0.00 0.00 0.00 92 1015.1
20200806094623 59 152 0.0 3.0 0.00 0.00 0.00 91 1015.1
20200806094104 59 152 1.0 3.0 0.00 0.00 0.00 91 1015.1
20200806093555 59 152 1.0 3.0 0.00 0.00 0.00 90 1015.1
20200806093150 59 152 0.0 3.0 0.00 0.00 0.00 92 1015.1
20200806092547 59 152 1.0 3.0 0.00 0.00 0.00 92 1015.1
20200806092054 59 152 0.0 2.0 0.00 0.00 0.00 91 1015.2
20200806091702 59 152 0.0 2.0 0.00 0.00 0.00 91 1015.1
20200806091043 59 152 0.0 2.0 0.00 0.00 0.00 91 1015.2
20200806090543 59 152 0.0 3.0 0.00 0.00 0.00 91 1015.2
20200806090100 60 152 0.0 3.0 0.00 0.00 0.00 90 1015.2
20200806085542 60 152 1.0 5.0 0.00 0.00 0.00 90 1015.3
20200806085043 60 152 2.0 5.0 0.00 0.00 0.00 90 1015.2
20200806084606 59 150 0.0 5.0 0.00 0.00 0.00 91 1015.2
20200806084040 60 150 1.0 5.0 0.00 0.00 0.00 90 1015.2
20200806083547 60 150 2.0 5.0 0.00 0.00 0.00 90 1015.3
20200806083217 60 148 1.0 5.0 0.00 0.00 0.00 89 1015.3
20200806082539 60 146 2.0 5.0 0.00 0.00 0.00 89 1015.3
20200806082037 60 142 2.0 5.0 0.00 0.00 0.00 89 1015.3
20200806081607 61 146 1.0 3.0 0.00 0.00 0.00 89 1015.3
20200806081036 61 146 1.0 5.0 0.00 0.00 0.00 89 1015.3
20200806080541 61 146 2.0 5.0 0.00 0.00 0.00 89 1015.3
20200806080241 61 153 3.0 6.0 0.00 0.00 0.00 89 1015.3
20200806075539 61 148 2.0 6.0 0.00 0.00 0.00 89 1015.3
20200806075041 61 157 2.0 5.0 0.00 0.00 0.00 89 1015.3
20200806074610 61 143 2.0 4.0 0.00 0.00 0.00 89 1015.3
20200806074037 61 146 0.0 4.0 0.00 0.00 0.00 89 1015.3
20200806073534 61 146 1.0 4.0 0.00 0.00 0.00 89 1015.3
20200806072543 61 146 1.0 4.0 0.00 0.00 0.00 89 1015.4
20200806072033 61 146 1.0 4.0 0.00 0.00 0.00 89 1015.3
20200806071622 61 147 2.0 5.0 0.00 0.00 0.00 89 1015.3
20200806071036 61 148 2.0 5.0 0.00 0.00 0.00 88 1015.4
20200806070540 62 153 2.0 5.0 0.00 0.00 0.00 88 1015.2
20200806070105 62 149 2.0 5.0 0.00 0.00 0.00 88 1015.2
20200806065531 62 146 2.0 5.0 0.00 0.00 0.00 88 1015.3
20200806065031 62 149 2.0 5.0 0.00 0.00 0.00 88 1015.3
20200806064654 62 136 2.0 6.0 0.00 0.00 0.00 89 1015.3
20200806064031 62 148 2.0 5.0 0.00 0.00 0.00 88 1015.3
20200806063530 62 159 3.0 5.0 0.00 0.00 0.00 88 1015.3
20200806063041 62 141 2.0 5.0 0.00 0.00 0.00 88 1015.3
20200806062534 62 141 2.0 5.0 0.00 0.00 0.00 88 1015.4
20200806062028 62 150 3.0 5.0 0.00 0.00 0.00 88 1015.3
20200806061618 62 145 2.0 5.0 0.00 0.00 0.00 88 1015.3
20200806061029 62 146 2.0 5.0 0.00 0.00 0.00 88 1015.3
20200806060528 62 150 3.0 7.0 0.00 0.00 0.00 87 1015.3
20200806060026 63 149 4.0 7.0 0.00 0.00 0.00 87 1015.3
20200806055525 63 148 2.0 5.0 0.00 0.00 0.00 86 1015.3
20200806055039 63 144 2.0 5.0 0.00 0.00 0.00 86 1015.3
20200806054538 63 148 3.0 7.0 0.00 0.00 0.00 85 1015.2
20200806054024 64 148 3.0 8.0 0.00 0.00 0.00 85 1015.2
20200806053531 64 157 4.0 8.0 0.00 0.00 0.00 85 1015.3
20200806053118 64 138 3.0 8.0 0.00 0.00 0.00 85 1015.3
20200806052520 64 148 3.0 9.0 0.00 0.00 0.00 84 1015.2
20200806052036 64 134 3.0 9.0 0.00 0.00 0.00 84 1015.3
20200806051527 65 143 2.0 6.0 0.00 0.00 0.00 84 1015.4
20200806051018 65 158 2.0 8.0 0.00 0.00 0.00 84 1015.3
20200806050518 65 196 3.0 7.0 0.00 0.00 0.00 84 1015.3
20200806050119 65 152 2.0 7.0 0.00 0.00 0.00 84 1015.3
20200806045517 65 169 3.0 7.0 0.00 0.00 0.00 84 1015.3
20200806045021 65 173 2.0 5.0 0.00 0.00 0.00 84 1015.4
20200806044530 65 176 1.0 6.0 0.00 0.00 0.00 84 1015.4
20200806043516 65 157 2.0 5.0 0.00 0.00 0.00 84 1015.3
20200806043021 65 159 3.0 7.0 0.00 0.00 0.00 83 1015.3
20200806042515 65 171 3.0 7.0 0.00 0.00 0.00 84 1015.3
20200806042015 65 151 3.0 5.0 0.00 0.00 0.00 84 1015.3
20200806041524 65 182 2.0 8.0 0.00 0.00 0.00 85 1015.4
20200806041014 65 181 2.0 8.0 0.00 0.00 0.00 84 1015.4
20200806040521 66 182 2.0 6.0 0.00 0.00 0.00 83 1015.2
20200806040038 66 165 2.0 8.0 0.00 0.00 0.00 83 1015.1
20200806035515 66 161 1.0 8.0 0.00 0.00 0.00 83 1015.1
20200806035014 67 194 3.0 8.0 0.00 0.00 0.00 82 1015.2
20200806034525 67 144 2.0 6.0 0.00 0.00 0.00 82 1015.1
20200806034020 67 148 2.0 6.0 0.00 0.00 0.00 82 1015.1
20200806033514 66 156 2.0 6.0 0.00 0.00 0.00 83 1015.0
20200806033021 67 163 2.0 5.0 0.00 0.00 0.00 83 1015.0
20200806032518 66 159 2.0 5.0 0.00 0.00 0.00 84 1015.0
20200806032013 66 176 1.0 4.0 0.00 0.00 0.00 85 1014.9
20200806031514 66 178 1.0 4.0 0.00 0.00 0.00 85 1014.9
20200806031017 66 158 1.0 6.0 0.00 0.00 0.00 84 1014.9
20200806030516 67 159 4.0 6.0 0.00 0.00 0.00 83 1014.9
20200806030041 67 148 3.0 5.0 0.00 0.00 0.00 83 1014.8
20200806025510 67 161 2.0 5.0 0.00 0.00 0.00 82 1014.8
20200806025011 68 152 2.0 6.0 0.00 0.00 0.00 82 1014.8
20200806024522 67 150 3.0 6.0 0.00 0.00 0.00 82 1014.8
20200806024018 68 156 2.0 6.0 0.00 0.00 0.00 82 1014.9
20200806023510 68 142 2.0 4.0 0.00 0.00 0.00 81 1014.7
20200806023015 68 142 2.0 6.0 0.00 0.00 0.00 81 1014.7
20200806022511 68 178 1.0 6.0 0.00 0.00 0.00 80 1014.6
20200806022012 69 150 2.0 6.0 0.00 0.00 0.00 80 1014.5
20200806021520 69 172 2.0 7.0 0.00 0.00 0.00 79 1014.5
20200806021016 69 144 3.0 7.0 0.00 0.00 0.00 78 1014.4
20200806020509 69 140 3.0 7.0 0.00 0.00 0.00 78 1014.3
20200806020029 70 160 3.0 6.0 0.00 0.00 0.00 78 1014.3
20200806015512 70 188 1.0 7.0 0.00 0.00 0.00 77 1014.3
20200806015029 70 191 3.0 7.0 0.00 0.00 0.00 77 1014.2
20200806014513 70 157 3.0 8.0 0.00 0.00 0.00 76 1014.2
20200806014018 70 188 3.0 9.0 0.00 0.00 0.00 76 1014.1
20200806013508 70 142 4.0 10.0 0.00 0.00 0.00 76 1014.1
20200806013015 71 122 5.0 12.0 0.00 0.00 0.00 75 1014.0
20200806012519 71 157 6.0 12.0 0.00 0.00 0.00 74 1014.1
20200806012007 71 180 5.0 11.0 0.00 0.00 0.00 74 1014.1
20200806011507 71 162 5.0 10.0 0.00 0.00 0.00 73 1014.2
20200806011009 71 143 5.0 14.0 0.00 0.00 0.00 73 1014.2
20200806010508 72 134 7.0 14.0 0.00 0.00 0.00 73 1014.2
20200806010017 71 132 3.0 8.0 0.00 0.00 0.00 73 1014.1
20200806005504 72 156 4.0 11.0 0.00 0.00 0.00 73 1014.1
20200806005015 72 182 6.0 11.0 0.00 0.00 0.00 73 1014.2
20200806004517 71 171 5.0 9.0 0.00 0.00 0.00 73 1014.2
20200806004020 72 175 3.0 8.0 0.00 0.00 0.00 72 1014.3
20200806003503 72 187 3.0 10.0 0.00 0.00 0.00 72 1014.2
20200806003003 72 174 4.0 10.0 0.00 0.00 0.00 72 1014.2
20200806002503 72 188 4.0 10.0 0.00 0.00 0.00 71 1014.2
20200806002002 72 132 5.0 11.0 0.00 0.00 0.00 70 1014.3
20200806001640 72 133 4.0 11.0 0.00 0.00 0.00 70 1014.3
20200806001104 73 178 7.0 13.0 0.00 0.00 0.00 70 1014.3
20200806000613 73 161 7.0 13.0 0.00 0.00 0.00 71 1014.3
20200806000343 73 137 5.0 14.0 0.00 0.00 0.00 70 1014.4
20200805235609 73 138 9.0 14.0 0.00 0.00 0.00 70 1014.3
20200805235100 73 157 4.0 10.0 0.00 0.00 0.00 71 1014.4
20200805234739 73 165 4.0 13.0 0.00 0.00 0.00 69 1014.4
20200805234059 74 179 7.0 13.0 0.00 0.00 0.00 70 1014.4
20200805233611 73 168 7.0 14.0 0.00 0.00 0.00 70 1014.4
20200805233140 74 202 7.0 15.0 0.00 0.00 0.00 69 1014.4
20200805232618 74 146 6.0 15.0 0.00 0.00 0.00 69 1014.4
20200805232109 75 209 7.0 12.0 0.00 0.00 0.00 67 1014.5
20200805231656 74 161 5.0 14.0 0.00 0.00 0.00 69 1014.5
20200805231058 75 193 4.0 14.0 0.00 0.00 0.00 68 1014.6
20200805230558 75 186 9.0 14.0 0.00 0.00 0.00 67 1014.5
20200805230131 75 158 5.0 12.0 0.00 0.00 0.00 68 1014.6
20200805225601 75 188 3.0 13.0 0.00 0.00 0.00 68 1014.5
20200805225057 75 210 5.0 13.0 0.00 0.00 0.00 67 1014.5
20200805224703 76 185 6.0 12.0 0.00 0.00 0.00 65 1014.5
20200805224056 76 159 4.0 18.0 0.00 0.00 0.00 66 1014.5
20200805223601 75 163 8.0 18.0 0.00 0.00 0.00 68 1014.5
20200805223102 74 196 4.0 13.0 0.00 0.00 0.00 68 1014.4
20200805222608 74 149 4.0 11.0 0.00 0.00 0.00 71 1014.4
20200805222055 74 144 5.0 12.0 0.00 0.00 0.00 69 1014.4
20200805221556 74 150 5.0 16.0 0.00 0.00 0.00 71 1014.5
20200805221055 74 140 9.0 16.0 0.00 0.00 0.00 68 1014.6
20200805220601 74 172 5.0 15.0 0.00 0.00 0.00 70 1014.5